[Date Prev][Date Next][Thread Prev][Thread Next] - [Date Index][Thread Index][Author Index]

2 LIne ISS Keps 8-18



ISS
1 25544U 98067A   02230.10075198  .00037441  00000-0  49346-3 0   560
2 25544  51.6383 102.2430 0017067 151.4660  11.8267 15.57879336213683


----
Via the sarex mailing list at AMSAT.ORG courtesy of AMSAT-NA.
To unsubscribe, send "unsubscribe sarex" to Majordomo@amsat.org



AMSAT Top AMSAT Home